[[{"header":{"parameterUnit":"m.s-1","parameterCategory":1,"la1":30.2991,"la2":30.254,"lo1":-89.0895,"lo2":-89.0444,"dy":0.0017,"dx":0.0017,"nx":28,"ny":28,"refTime":"2024-11-25T09:00:00:Z","depth":0,"parameterNumber":2,"parameterNumberName":"U-component_of_WINDS"},"data":[0,0,0,0,0,0,0,0,0,0,0,0,0,0,0,0,0,0,0,0,0,0,0,0,0,0,0,0,0,0,0,0,0,0,0,0,0,0,0,0,0,0,0,0,0,0,0,0,0,0,0,0,0,0,0,0,0,0,-1.03,-1.0299,0,-1.0196,-1.0195,-1.0193,-1.0141,-1.0141,-1.0141,-1.0141,-1.0031,-1.0029,-1.0026,0,0,0,0,0,0,0,0,0,0,0,0,0,-1.0451,-1.0449,-1.03,-1.0299,-1.0298,-1.0196,-1.0195,-1.0193,-1.0141,-1.0141,-1.0141,-1.0141,-1.0032,-1.0029,-1.0025,0,0,0,0,0,0,0,0,0,0,0,0,0,-1.037,-1.0448,-1.0301,-1.026,-1.0255,-1.0196,-1.0194,-1.0193,-1.0141,-1.0141,-1.0141,-1.0141,-1.0033,-1.0029,-1.0025,-0.9998,0,0,-1.0012,-1.001,0,0,0,0,0,0,0,0,-1.0375,-1.0365,-1.0267,-1.0262,-1.0257,-1.0181,-1.0207,-1.0127,-1.0141,-1.0184,-1.0141,-1.0141,-1.0081,-1.0073,-1.0053,-0.9993,-0.9989,-1.0011,-1.0009,-1.0007,-1.0005,0,0,0,0,0,0,0,-1.038,-1.0369,-1.0259,-1.0265,-1.0259,-1.0245,-1.0234,-1.0192,-1.0134,-1.018,-1.0176,-1.0165,-1.0078,-1.0058,-1.005,-0.9987,-1.0011,-1.0007,-1.0005,-1.0003,-0.9898,-0.9898,0,0,0,0,0,0,-1.0393,-1.0374,-1.0262,-1.0256,-1.0317,-1.0243,-1.023,-1.0206,-1.0134,-1.0123,-1.0165,-1.0163,-1.0065,-1.0055,-1.0046,-1.0009,-1.0007,-1.0003,-1.0,-0.9899,-0.9898,-0.9898,0,0,0,0,0,0,-1.0397,-1.0384,-1.0266,-1.0314,-1.0298,-1.024,-1.0213,-1.0204,-1.0183,-1.0123,-1.0112,-1.0155,-1.0065,-1.0052,-1.0011,-1.0005,-1.0001,-0.9997,-0.9899,-0.9899,-0.9898,-0.9937,0,0,0,0,0,0,-1.0401,-1.0385,-1.0375,-1.0314,-1.0295,-1.0234,-1.0213,-1.0202,-1.0176,-1.0172,-1.011,-1.01,-1.0064,-1.0017,-1.0006,-0.9999,-0.9993,-0.9899,-0.9899,-0.9898,-0.9936,-0.9938,-0.994,0,0,0,0,0,-1.0407,-1.039,-1.0375,-1.0362,-1.0282,-1.0233,-1.0223,-1.0182,-1.0176,-1.0164,-1.0126,-1.0102,-1.0008,-1.0014,-1.0001,-0.9992,-0.9899,-0.9899,-0.9898,-0.9935,-0.9937,-0.994,0,0,0,0,0,0,-1.0452,-1.0381,-1.0364,-1.0327,-1.0287,-1.0225,-1.021,-1.0187,-1.0147,-1.0144,-1.0095,-1.0082,-1.0044,-1.0014,-1.0022,-0.9962,-0.9951,-0.9948,-0.9983,-0.9985,-0.9987,-0.9995,-0.999,0,0,0,0,0,-1.0457,-1.0425,-1.0365,-1.0338,-1.0319,-1.0268,-1.0245,-1.0218,-1.0173,-1.0156,-1.0114,-1.0071,-1.0031,-1.0007,-0.9967,-0.9931,-0.9916,-0.9919,-0.9921,-0.9923,-0.992,-0.9898,-0.9898,-0.9897,-0.9897,-0.9897,0,0,-1.0469,-1.0426,-1.0409,-1.0346,-1.0311,-1.0278,-1.0254,-1.0219,-1.0193,-1.015,-1.0108,-1.0076,-1.0025,-0.9986,-0.9966,-0.9959,-0.9917,-0.9922,-0.9924,-0.9921,-0.9897,-0.9898,-0.9898,-0.9897,-0.9897,-0.9897,0,0,-1.0472,-1.0437,-1.0411,-1.0377,-1.0325,-1.0291,-1.0285,-1.0226,-1.0203,-1.016,-1.0127,-1.0095,-1.0028,-0.9993,-0.9966,-0.9955,-0.9931,-0.9944,-0.9954,-0.9933,-0.9933,-0.9933,-0.9928,-0.9927,-0.9942,-0.9942,-0.9942,0,-1.0492,-1.0441,-1.04,-1.0367,-1.034,-1.03,-1.0272,-1.024,-1.0178,-1.016,-1.0153,-1.0068,-1.0031,-0.9982,-0.998,-0.996,-0.995,-0.9951,-0.9936,-0.9936,-0.9935,-0.993,-0.9928,-0.9944,-0.9944,-0.9943,-0.9943,0,-1.0468,-1.0433,-1.0418,-1.0359,-1.033,-1.03,-1.0253,-1.0228,-1.0203,-1.017,-1.0126,-1.008,-1.003,-1.0016,-0.9991,-0.9964,-0.9961,-0.9946,-0.9934,-0.9937,-0.9932,-0.9929,-0.9946,-0.9946,-0.9945,-0.9945,0,0,-1.0497,-1.0416,-1.0411,-1.0383,-1.0323,-1.0295,-1.0262,-1.0214,-1.0193,-1.0152,-1.0122,-1.0067,-1.0052,-1.0022,-0.9992,-0.9973,-0.9967,-0.996,-0.9958,-0.9962,-0.9932,-0.9943,-0.9942,-0.9951,-0.995,-0.995,-0.9936,0,-1.0491,-1.0432,-1.0393,-1.0349,-1.0315,-1.0277,-1.0248,-1.0207,-1.0175,-1.0141,-1.0105,-1.0066,-1.005,-1.0031,-1.0011,-0.9972,-0.996,-0.9972,-0.9921,-0.992,-0.9935,-0.9939,-0.9951,-0.9941,-0.9934,-0.9933,-0.9933,0,-1.0476,-1.0436,-1.0389,-1.0332,-1.0316,-1.0292,-1.0244,-1.0212,-1.0165,-1.0142,-1.0108,-1.0078,-1.0041,-1.0032,-0.9979,-0.9989,-0.9966,-0.9943,-0.9941,-0.9935,-0.9927,-0.9932,-0.9936,-0.9935,-0.9929,-0.993,-0.993,0,-1.0501,-1.0435,-1.0398,-1.0376,-1.0309,-1.0292,-1.0263,-1.0215,-1.0189,-1.0146,-1.0128,-1.0082,-1.0057,-1.0021,-0.9979,-0.9977,-0.993,-0.9918,-0.9909,-0.991,-0.99,-0.9902,-0.9901,-0.9887,-0.9887,-0.9887,-0.9887,0,-1.0498,-1.0471,-1.0408,-1.0386,-1.0353,-1.0308,-1.0277,-1.0244,-1.0202,-1.0171,-1.0135,-1.0106,-1.0053,-1.0017,-0.9984,-0.9944,-0.9933,-0.9913,-0.9904,-0.9916,-0.9918,-0.99,-0.9899,-0.9887,-0.9887,-0.9887,-0.9887,0,-1.052,-1.0478,-1.0435,-1.0374,-1.0358,-1.0337,-1.0285,-1.026,-1.0226,-1.0187,-1.0176,-1.0121,-1.0078,-1.0032,-0.9973,-0.995,-0.9912,-0.99,-0.9928,-0.9923,-0.9916,-0.9917,-0.9903,-0.9898,-0.9889,-0.9889,-0.9889,0,-1.0521,-1.0499,-1.0437,-1.0414,-1.0386,-1.035,-1.0322,-1.0277,-1.025,-1.0193,-1.0175,-1.0129,-1.009,-1.0021,-0.9976,-0.993,-0.9916,-0.9915,-0.9909,-0.9921,-0.9915,-0.9917,-0.9914,-0.9916,-0.9917,-0.9917,-0.9917,0,-1.0527,-1.0507,-1.0469,-1.0424,-1.0393,-1.0355,-1.0316,-1.0299,-1.0245,-1.0216,-1.0172,-1.0141,-1.0081,-1.0035,-0.9983,-0.9951,-0.9925,-0.9919,-0.9915,-0.9926,-0.9943,-0.9933,-0.9932,-0.992,-0.9919,-0.9919,-0.9919,-0.9919,-1.0537,-1.0516,-1.0468,-1.0427,-1.0393,-1.0357,-1.0331,-1.0294,-1.0256,-1.0204,-1.0179,-1.0134,-1.0085,-1.0014,-0.9983,-0.9946,-0.9938,-0.9932,-0.993,-0.9929,-0.9931,-0.9949,-0.9936,-0.9936,-0.9936,-0.9936,-0.9936,0,-1.054,-1.0508,-1.0471,-1.0417,-1.0385,-1.0364,-1.0319,-1.0293,-1.0254,-1.0212,-1.0174,-1.0122,-1.0077,-1.0028,-0.998,-0.996,-0.9946,-0.9948,-0.9949,-0.9942,-0.9941,-0.995,-0.996,-0.996,-0.996,-0.996,-0.996,-0.996,-1.0538,-1.05,-1.0474,-1.0418,-1.0385,-1.0342,-1.0318,-1.0284,-1.025,-1.0194,-1.0157,-1.0125,-1.008,-1.0028,-0.9985,-0.9971,-0.9955,-0.9961,-0.9944,-0.9944,-0.9942,-0.994,-0.9948,-0.9958,-0.9958,-0.9947,-0.9947,-0.9947]},{"header":{"parameterUnit":"m.s-1","parameterCategory":1,"la1":30.2991,"la2":30.254,"lo1":-89.0895,"lo2":-89.0444,"dy":0.0017,"dx":0.0017,"nx":28,"ny":28,"refTime":"2024-11-25T09:00:00:Z","depth":0,"parameterNumber":3,"parameterNumberName":"V-component_of_WINDS"},"data":[0,0,0,0,0,0,0,0,0,0,0,0,0,0,0,0,0,0,0,0,0,0,0,0,0,0,0,0,0,0,0,0,0,0,0,0,0,0,0,0,0,0,0,0,0,0,0,0,0,0,0,0,0,0,0,0,0,0,-0.8636,-0.8637,0,-0.867,-0.867,-0.8671,-0.868,-0.868,-0.8679,-0.8679,-0.871,-0.8711,-0.8712,0,0,0,0,0,0,0,0,0,0,0,0,0,-0.8577,-0.8578,-0.8636,-0.8637,-0.8637,-0.867,-0.867,-0.8671,-0.868,-0.8679,-0.8679,-0.8679,-0.871,-0.8711,-0.8712,0,0,0,0,0,0,0,0,0,0,0,0,0,-0.8606,-0.8578,-0.8636,-0.8646,-0.8647,-0.867,-0.867,-0.8671,-0.868,-0.8679,-0.8679,-0.8679,-0.871,-0.8711,-0.8712,-0.8727,0,0,-0.8717,-0.8718,0,0,0,0,0,0,0,0,-0.8604,-0.8608,-0.8644,-0.8645,-0.8647,-0.867,-0.8661,-0.869,-0.868,-0.8667,-0.8679,-0.8679,-0.8697,-0.87,-0.8706,-0.8729,-0.873,-0.8717,-0.8718,-0.8719,-0.8719,0,0,0,0,0,0,0,-0.8602,-0.8606,-0.865,-0.8644,-0.8646,-0.8647,-0.8651,-0.8666,-0.8683,-0.8668,-0.8669,-0.8673,-0.8698,-0.8705,-0.8707,-0.8731,-0.8717,-0.8719,-0.8719,-0.872,-0.8767,-0.8767,0,0,0,0,0,0,-0.8599,-0.8605,-0.8649,-0.8651,-0.8624,-0.8648,-0.8653,-0.8663,-0.8683,-0.8686,-0.8673,-0.8673,-0.8702,-0.8705,-0.8708,-0.8727,-0.8719,-0.872,-0.8721,-0.8766,-0.8767,-0.8767,0,0,0,0,0,0,-0.8598,-0.8603,-0.8647,-0.8628,-0.8634,-0.865,-0.8661,-0.8664,-0.8671,-0.8687,-0.869,-0.8678,-0.8702,-0.8706,-0.8723,-0.8728,-0.8721,-0.8722,-0.8766,-0.8766,-0.8767,-0.8764,0,0,0,0,0,0,-0.8596,-0.8602,-0.8609,-0.8628,-0.8635,-0.8662,-0.8662,-0.8665,-0.8674,-0.8674,-0.8692,-0.8694,-0.8702,-0.872,-0.8724,-0.873,-0.8723,-0.8765,-0.8766,-0.8767,-0.8764,-0.8765,-0.8765,0,0,0,0,0,-0.8594,-0.8606,-0.8609,-0.8614,-0.8644,-0.8662,-0.8666,-0.8676,-0.8674,-0.8681,-0.8691,-0.8694,-0.8727,-0.8722,-0.8726,-0.8733,-0.8765,-0.8766,-0.8767,-0.8764,-0.8764,-0.8765,0,0,0,0,0,0,-0.8586,-0.8609,-0.8612,-0.8632,-0.8645,-0.8664,-0.8672,-0.8677,-0.869,-0.869,-0.87,-0.8704,-0.872,-0.8728,-0.8722,-0.8748,-0.8746,-0.8748,-0.8742,-0.8743,-0.8744,-0.8741,-0.8725,0,0,0,0,0,-0.8587,-0.8601,-0.862,-0.8635,-0.8642,-0.8656,-0.8664,-0.8671,-0.8685,-0.869,-0.8702,-0.8714,-0.8727,-0.8736,-0.8749,-0.8765,-0.8769,-0.8772,-0.8772,-0.8773,-0.8774,-0.8782,-0.8784,-0.877,-0.877,-0.877,0,0,-0.8588,-0.8602,-0.8611,-0.8634,-0.8645,-0.8659,-0.866,-0.8675,-0.8685,-0.8692,-0.8709,-0.8717,-0.8732,-0.8748,-0.8756,-0.8756,-0.8779,-0.8774,-0.8774,-0.8775,-0.8783,-0.8785,-0.8786,-0.877,-0.877,-0.877,0,0,-0.8597,-0.861,-0.8624,-0.8635,-0.8653,-0.8662,-0.8665,-0.8683,-0.869,-0.8707,-0.8712,-0.8724,-0.8746,-0.8757,-0.8765,-0.8778,-0.8781,-0.8782,-0.8785,-0.8793,-0.8794,-0.8795,-0.8799,-0.8801,-0.8783,-0.8783,-0.8783,0,-0.8596,-0.8618,-0.863,-0.8645,-0.8654,-0.8663,-0.8676,-0.8686,-0.8706,-0.8712,-0.8712,-0.874,-0.8751,-0.8769,-0.8773,-0.8779,-0.8782,-0.8779,-0.8793,-0.8794,-0.8795,-0.88,-0.8801,-0.8783,-0.8783,-0.8783,-0.8783,0,-0.8616,-0.8631,-0.864,-0.8661,-0.8671,-0.8685,-0.8698,-0.8707,-0.8713,-0.8722,-0.8738,-0.8751,-0.8767,-0.8772,-0.8777,-0.8791,-0.879,-0.8791,-0.8789,-0.8797,-0.8801,-0.8802,-0.8783,-0.8783,-0.8783,-0.8783,0,0,-0.8621,-0.8648,-0.8651,-0.8661,-0.8681,-0.8692,-0.8706,-0.8722,-0.8729,-0.8743,-0.8754,-0.8773,-0.8774,-0.8783,-0.879,-0.8797,-0.8806,-0.8797,-0.8798,-0.8798,-0.8822,-0.8821,-0.8822,-0.8808,-0.8809,-0.8809,-0.882,0,-0.8633,-0.8659,-0.867,-0.8691,-0.8704,-0.8712,-0.8724,-0.8737,-0.8746,-0.8757,-0.8767,-0.878,-0.8781,-0.8786,-0.8794,-0.8803,-0.8811,-0.8803,-0.8818,-0.8818,-0.8814,-0.8825,-0.8824,-0.8834,-0.8822,-0.8822,-0.8823,0,-0.865,-0.8665,-0.8687,-0.8705,-0.8711,-0.8722,-0.8737,-0.8749,-0.8763,-0.8769,-0.8779,-0.8785,-0.8799,-0.8797,-0.8815,-0.8809,-0.8816,-0.8822,-0.8822,-0.8824,-0.8821,-0.8826,-0.8837,-0.8839,-0.8825,-0.8825,-0.8825,0,-0.8651,-0.8676,-0.8693,-0.8701,-0.8722,-0.8729,-0.8738,-0.8753,-0.8762,-0.8775,-0.8781,-0.8795,-0.8803,-0.8813,-0.8822,-0.882,-0.884,-0.8838,-0.8844,-0.8844,-0.8847,-0.8847,-0.886,-0.8852,-0.8852,-0.8852,-0.8852,0,-0.8662,-0.8675,-0.8694,-0.8704,-0.8719,-0.873,-0.8744,-0.8754,-0.8766,-0.8778,-0.8785,-0.8795,-0.8807,-0.8818,-0.8826,-0.8839,-0.8843,-0.8847,-0.8849,-0.8846,-0.8846,-0.8851,-0.885,-0.8853,-0.8853,-0.8853,-0.8852,0,-0.8665,-0.8678,-0.8697,-0.8716,-0.8721,-0.8731,-0.8747,-0.8757,-0.8766,-0.878,-0.8784,-0.8798,-0.8812,-0.8822,-0.884,-0.8845,-0.8859,-0.8861,-0.8855,-0.8855,-0.886,-0.886,-0.8876,-0.8879,-0.887,-0.887,-0.887,0,-0.8672,-0.8682,-0.8703,-0.8712,-0.8721,-0.8735,-0.8744,-0.8756,-0.8766,-0.8783,-0.879,-0.8805,-0.8817,-0.8838,-0.8849,-0.8863,-0.8865,-0.887,-0.8867,-0.8864,-0.8864,-0.8863,-0.8864,-0.887,-0.887,-0.887,-0.887,0,-0.8681,-0.8687,-0.8702,-0.8718,-0.8729,-0.8742,-0.8756,-0.8762,-0.8776,-0.8786,-0.8801,-0.881,-0.8829,-0.8843,-0.8857,-0.8865,-0.887,-0.8871,-0.8873,-0.887,-0.8866,-0.8868,-0.8855,-0.887,-0.887,-0.887,-0.887,-0.887,-0.8686,-0.8696,-0.8712,-0.8727,-0.8739,-0.8751,-0.8761,-0.8772,-0.8785,-0.8801,-0.8807,-0.8822,-0.8836,-0.8856,-0.8864,-0.8875,-0.8875,-0.8878,-0.8879,-0.8879,-0.8879,-0.8864,-0.8878,-0.8878,-0.8878,-0.8878,-0.8878,0,-0.8696,-0.8707,-0.8721,-0.874,-0.8751,-0.8756,-0.877,-0.878,-0.8793,-0.8806,-0.8818,-0.8835,-0.8849,-0.8861,-0.8875,-0.8881,-0.8883,-0.8884,-0.8884,-0.8885,-0.8878,-0.8875,-0.8882,-0.8882,-0.8882,-0.8882,-0.8882,-0.8882,-0.8702,-0.8719,-0.8727,-0.8749,-0.8759,-0.8775,-0.8783,-0.8794,-0.8804,-0.8823,-0.8834,-0.8843,-0.8855,-0.887,-0.8882,-0.8885,-0.889,-0.889,-0.8894,-0.8887,-0.8886,-0.8885,-0.8882,-0.8891,-0.8891,-0.89,-0.89,-0.89]}]]